• In Hungary
  • List of Countries
  • For 7 days
  • Water Temperature
  • Satellite Maps
  • Weather Map
  • News
  • Weather Widgets
  • user-avatar
    Login

    Hourly Weather Berwick-Upon-Tweed

    Today, 23 November, Thursday

    Time Temperature Precipitation Wind Pressure Humidity
    00:00 +7°C° 0.5 mm 2 mps 733 mmHg 96%
    01:00 +7°C° 0.3 mm 3 mps 733 mmHg 95%
    02:00 +7°C° 0.3 mm 3 mps 733 mmHg 94%
    03:00 +7°C° 0.3 mm 3 mps 732 mmHg 93%
    04:00 +6°C° 0.5 mm 5 mps 733 mmHg 89%
    05:00 +4°C° 0.5 mm 7 mps 733 mmHg 85%
    06:00 +3°C° 0.5 mm 9 mps 734 mmHg 80%
    07:00 +2°C° 0.1 mm 9 mps 734 mmHg 82%
    08:00 +2°C° 0.1 mm 9 mps 735 mmHg 83%
    09:00 +1°C° 0.1 mm 8 mps 735 mmHg 84%
    10:00 +2°C° 0.2 mm 8 mps 736 mmHg 83%
    11:00 +4°C° 0.2 mm 7 mps 737 mmHg 81%
    12:00 +5°C° 0.2 mm 6 mps 738 mmHg 79%
    13:00 +4°C° 0.2 mm 7 mps 739 mmHg 79%
    14:00 +4°C° 0.2 mm 7 mps 740 mmHg 79%
    15:00 +2°C° 0.2 mm 8 mps 742 mmHg 79%
    16:00 +1°C° 0 mm 8 mps 743 mmHg 80%
    17:00 +1°C° 0 mm 8 mps 745 mmHg 82%
    18:00 0°C° 0 mm 8 mps 746 mmHg 83%
    19:00 0°C° 0 mm 8 mps 747 mmHg 83%
    20:00 0°C° 0 mm 7 mps 748 mmHg 84%
    21:00 0°C° 0 mm 7 mps 749 mmHg 84%
    22:00 -1°C° 0 mm 7 mps 749 mmHg 84%
    23:00 -1°C° 0 mm 7 mps 750 mmHg 85%

    Tomorrow, 24 November, Friday

    Time Temperature Precipitation Wind Pressure Humidity
    00:00 -2°C° 0 mm 7 mps 750 mmHg 85%
    01:00 -2°C° 0 mm 6 mps 750 mmHg 85%
    02:00 -2°C° 0 mm 6 mps 751 mmHg 86%
    03:00 -2°C° 0 mm 6 mps 751 mmHg 86%
    04:00 -2°C° 0 mm 6 mps 751 mmHg 85%
    05:00 -2°C° 0 mm 6 mps 751 mmHg 85%
    06:00 -2°C° 0 mm 6 mps 752 mmHg 85%
    07:00 -2°C° 0 mm 6 mps 752 mmHg 83%
    08:00 -1°C° 0 mm 6 mps 752 mmHg 82%
    09:00 -1°C° 0 mm 6 mps 753 mmHg 80%
    10:00 0°C° 0 mm 7 mps 753 mmHg 76%
    11:00 +2°C° 0 mm 7 mps 753 mmHg 72%
    12:00 +1°C° 0 mm 8 mps 753 mmHg 67%
    13:00 +1°C° 0 mm 8 mps 753 mmHg 68%
    14:00 0°C° 0 mm 8 mps 753 mmHg 69%
    15:00 0°C° 0 mm 9 mps 753 mmHg 70%
    16:00 0°C° 0 mm 9 mps 754 mmHg 72%
    17:00 -1°C° 0 mm 9 mps 754 mmHg 73%
    18:00 -3°C° 0 mm 9 mps 754 mmHg 75%
    19:00 -3°C° 0 mm 9 mps 754 mmHg 75%
    20:00 -3°C° 0 mm 9 mps 754 mmHg 75%
    21:00 -3°C° 0 mm 9 mps 754 mmHg 75%
    22:00 -1°C° 0 mm 9 mps 754 mmHg 76%
    23:00 -1°C° 0 mm 9 mps 754 mmHg 76%

    Day after tomorrow, 25 November, Saturday

    Time Temperature Precipitation Wind Pressure Humidity
    00:00 -1°C° 0 mm 9 mps 754 mmHg 77%
    01:00 -1°C° 0 mm 9 mps 754 mmHg 78%
    02:00 -1°C° 0 mm 8 mps 753 mmHg 78%
    03:00 -2°C° 0 mm 8 mps 753 mmHg 79%
    04:00 -2°C° 0 mm 8 mps 753 mmHg 79%
    05:00 -2°C° 0 mm 7 mps 753 mmHg 80%
    06:00 -2°C° 0 mm 7 mps 754 mmHg 80%
    07:00 -1°C° 0 mm 8 mps 754 mmHg 79%
    08:00 -1°C° 0 mm 8 mps 754 mmHg 79%
    09:00 -1°C° 0 mm 8 mps 755 mmHg 78%
    10:00 0°C° 0 mm 9 mps 755 mmHg 72%
    11:00 +1°C° 0 mm 9 mps 755 mmHg 66%
    12:00 +2°C° 0 mm 10 mps 755 mmHg 61%
    13:00 +1°C° 0 mm 10 mps 755 mmHg 63%
    14:00 +1°C° 0 mm 10 mps 755 mmHg 65%
    15:00 0°C° 0 mm 10 mps 755 mmHg 67%
    16:00 0°C° 0 mm 10 mps 755 mmHg 69%
    17:00 0°C° 0 mm 10 mps 755 mmHg 72%
    18:00 -1°C° 0 mm 11 mps 755 mmHg 74%
    19:00 -1°C° 0 mm 11 mps 755 mmHg 76%
    20:00 -1°C° 0 mm 11 mps 755 mmHg 77%
    21:00 0°C° 0 mm 10 mps 756 mmHg 79%
    22:00 +1°C° 0 mm 11 mps 756 mmHg 78%
    23:00 +1°C° 0 mm 11 mps 756 mmHg 77%

    26 November, Sunday

    Time Temperature Precipitation Wind Pressure Humidity
    00:00 +1°C° 0 mm 11 mps 757 mmHg 76%
    01:00 0°C° 0.1 mm 12 mps 757 mmHg 75%
    02:00 -1°C° 0.1 mm 12 mps 758 mmHg 74%
    03:00 -1°C° 0.1 mm 12 mps 758 mmHg 73%
    04:00 -1°C° 0 mm 12 mps 759 mmHg 75%
    05:00 -1°C° 0 mm 12 mps 759 mmHg 76%
    06:00 -1°C° 0 mm 11 mps 760 mmHg 77%
    07:00 -1°C° 0 mm 12 mps 760 mmHg 75%
    08:00 -1°C° 0 mm 12 mps 761 mmHg 72%
    09:00 -1°C° 0 mm 12 mps 762 mmHg 70%
    10:00 0°C° 0 mm 12 mps 762 mmHg 66%
    11:00 0°C° 0 mm 12 mps 762 mmHg 62%
    12:00 +2°C° 0 mm 12 mps 763 mmHg 59%
    13:00 +2°C° 0 mm 11 mps 763 mmHg 61%
    14:00 +1°C° 0 mm 11 mps 763 mmHg 64%
    15:00 +1°C° 0 mm 11 mps 764 mmHg 66%
    16:00 0°C° 0 mm 10 mps 764 mmHg 69%
    17:00 0°C° 0 mm 10 mps 764 mmHg 73%
    18:00 -2°C° 0 mm 10 mps 765 mmHg 76%
    19:00 -1°C° 0 mm 9 mps 765 mmHg 80%
    20:00 -1°C° 0 mm 9 mps 765 mmHg 83%
    21:00 -1°C° 0 mm 8 mps 765 mmHg 86%
    22:00 -1°C° 0.1 mm 7 mps 765 mmHg 87%
    23:00 +1°C° 0.1 mm 6 mps 764 mmHg 87%

    27 November, Monday

    Time Temperature Precipitation Wind Pressure Humidity
    00:00 +2°C° 0.1 mm 6 mps 764 mmHg 88%
    01:00 +3°C° 0.7 mm 6 mps 763 mmHg 88%
    02:00 +3°C° 0.7 mm 6 mps 762 mmHg 89%
    03:00 +4°C° 0.7 mm 7 mps 761 mmHg 90%
    04:00 +4°C° 0.1 mm 7 mps 761 mmHg 90%
    05:00 +4°C° 0.1 mm 8 mps 761 mmHg 89%
    06:00 +4°C° 0.1 mm 8 mps 760 mmHg 89%
    07:00 +4°C° 0 mm 8 mps 760 mmHg 88%
    08:00 +2°C° 0 mm 8 mps 760 mmHg 86%
    09:00 +2°C° 0 mm 8 mps 761 mmHg 85%
    10:00 +4°C° 0.1 mm 8 mps 761 mmHg 84%
    11:00 +4°C° 0.1 mm 8 mps 761 mmHg 82%
    12:00 +5°C° 0.1 mm 8 mps 761 mmHg 81%
    13:00 +5°C° 0.1 mm 7 mps 761 mmHg 82%
    14:00 +5°C° 0.1 mm 6 mps 761 mmHg 84%
    15:00 +4°C° 0.1 mm 6 mps 761 mmHg 85%
    16:00 +4°C° 0.2 mm 6 mps 761 mmHg 85%
    17:00 +3°C° 0.2 mm 7 mps 761 mmHg 85%
    18:00 +3°C° 0.2 mm 7 mps 761 mmHg 86%
    19:00 +3°C° 0.1 mm 7 mps 761 mmHg 87%
    20:00 +1°C° 0.1 mm 8 mps 761 mmHg 88%
    21:00 +1°C° 0.1 mm 8 mps 761 mmHg 89%
    22:00 +1°C° 0 mm 8 mps 761 mmHg 89%
    23:00 +1°C° 0 mm 8 mps 761 mmHg 88%

    28 November, Tuesday

    Time Temperature Precipitation Wind Pressure Humidity
    00:00 +1°C° 0 mm 8 mps 760 mmHg 88%
    01:00 +1°C° 0 mm 9 mps 760 mmHg 88%
    02:00 +1°C° 0 mm 9 mps 759 mmHg 89%
    03:00 +1°C° 0 mm 9 mps 759 mmHg 89%
    04:00 +1°C° 0 mm 9 mps 759 mmHg 89%
    05:00 +1°C° 0 mm 9 mps 758 mmHg 89%
    06:00 +1°C° 0 mm 9 mps 758 mmHg 89%
    07:00 +1°C° 0.6 mm 8 mps 757 mmHg 90%
    08:00 +1°C° 0.6 mm 8 mps 757 mmHg 91%
    09:00 +2°C° 0.6 mm 7 mps 757 mmHg 91%
    10:00 +2°C° 0.1 mm 8 mps 757 mmHg 88%
    11:00 +2°C° 0.1 mm 9 mps 757 mmHg 84%
    12:00 +2°C° 0.1 mm 10 mps 758 mmHg 80%
    13:00 +2°C° 0 mm 10 mps 758 mmHg 80%
    14:00 +2°C° 0 mm 10 mps 759 mmHg 79%
    15:00 +1°C° 0 mm 9 mps 759 mmHg 79%
    16:00 +1°C° 0.1 mm 9 mps 760 mmHg 81%
    17:00 0°C° 0.1 mm 9 mps 760 mmHg 82%
    18:00 -1°C° 0.1 mm 9 mps 760 mmHg 84%
    19:00 -1°C° 0.1 mm 9 mps 760 mmHg 84%
    20:00 -1°C° 0.1 mm 9 mps 760 mmHg 84%
    21:00 -2°C° 0.1 mm 10 mps 760 mmHg 84%
    22:00 -2°C° 0.1 mm 10 mps 760 mmHg 83%
    23:00 -2°C° 0.1 mm 10 mps 760 mmHg 82%
    Show more